Location: Santa Teresa Spring
(37.2333°N, 121.7000°W)
Time: 20:02:40
(UTC-08:00)

ISS - Visible Passes

Search period start: 23 November 2017 00:00
Search period end: 03 December 2017 00:00
Orbit: 402 x 407 km, 51.6° (Epoch: 24 November)

Date Brightness Start Highest point End Pass type
(mag) Time Alt. Az. Time Alt. Az. Time Alt. Az.
24 Nov -1.7 18:46:44 10° SSW 18:48:03 21° SSW 18:48:03 21° SSW visible
25 Nov -2.1 17:55:14 10° S 17:57:38 19° SE 17:58:18 18° ESE visible
25 Nov -0.3 19:30:51 10° WSW 19:30:59 11° WSW 19:30:59 11° WSW visible
26 Nov -3.4 18:38:16 10° SW 18:41:08 62° W 18:41:08 62° W visible
27 Nov -3.5 17:46:02 10° SSW 17:49:13 51° SE 17:51:11 21° ENE visible
27 Nov -0.5 19:23:27 10° WNW 19:23:51 12° WNW 19:23:51 12° WNW visible
28 Nov -2.4 18:30:25 10° W 18:33:22 30° NNW 18:33:49 29° NNW visible
29 Nov -3.4 17:37:41 10° WSW 17:40:55 57° NW 17:43:42 13° NE visible
30 Nov -1.6 18:23:05 10° WNW 18:25:18 17° NNW 18:26:10 15° N visible
01 Dec -2.1 17:29:54 10° W 17:32:42 25° NNW 17:35:31 10° NNE visible
02 Dec -1.1 18:16:35 10° NNW 18:17:19 11° NNW 18:18:04 10° N visible
